This demonstration page uses our WeatherBlox Daily Observations layout. Learn more.

Left ArrowRight Arrow

Hourly Observations for September 6, 2021

Temp ( °F °C ) Dew Point ( °F °C ) Humidity (%) Winds ( mph kmh ) Pressure ( in mb ) Visibility ( mi km ) Precip ( " mm )
12:53 am 00:53 Clear 72 22.2 60 15.6 66 66 SSW 8 13 29.98 1015 10 16 0.00 0.00
1:53 am 01:53 Clear 70 21.1 60 15.6 71 71 SSW 9 15 29.97 1015 10 16 0.00 0.00
2:53 am 02:53 Clear 69 20.6 59 15 70 70 SSW 9 15 29.96 1014 10 16 0.00 0.00
3:53 am 03:53 Clear 67 19.4 60 15.6 79 79 SSW 8 13 29.95 1014 10 16 0.00 0.00
4:53 am 04:53 Clear 65 18.3 60 15.6 84 84 SSW 6 9 29.94 1014 10 16 0.00 0.00
5:53 am 05:53 Clear 65 18.3 59 15 81 81 SSW 6 9 29.93 1014 10 16 0.00 0.00
6:53 am 06:53 Clear 63 17.2 59 15 87 87 SSW 6 9 29.94 1014 10 16 0.00 0.00
7:53 am 07:53 Sunny 64 17.8 59 15 84 84 SSW 9 15 29.95 1014 10 16 0.00 0.00
8:53 am 08:53 Sunny 67 19.4 60 15.6 79 79 SSW 8 13 29.96 1015 10 16 0.00 0.00
9:53 am 09:53 Sunny 71 21.7 61 16.1 71 71 SSW 9 15 29.95 1014 10 16 0.00 0.00
10:53 am 10:53 Sunny 76 24.4 64 17.8 67 67 SSW 7 11 29.95 1014 10 16 0.00 0.00
11:53 am 11:53 Sunny 80 26.7 64 17.8 58 58 S 8 13 29.93 1014 10 16 0.00 0.00
12:53 pm 12:53 Sunny 83 28.3 65 18.3 55 55 SSW 9 15 29.90 1013 10 16 0.00 0.00
1:53 pm 13:53 Sunny 86 30 65 18.3 49 49 S 8 13 29.88 1012 10 16 0.00 0.00
2:53 pm 14:53 Sunny 88 31.1 65 18.3 46 46 S 9 15 29.85 1011 10 16 0.00 0.00
3:53 pm 15:53 Sunny 89 31.7 64 17.8 43 43 SSW 9 15 29.83 1010 10 16 0.00 0.00
4:53 pm 16:53 Sunny 90 32.2 66 18.9 45 45 S 8 13 29.81 1010 10 16 0.00 0.00
5:53 pm 17:53 Sunny 89 31.7 66 18.9 47 47 S 7 11 29.80 1009 10 16 0.00 0.00
6:53 pm 18:53 Sunny 87 30.6 66 18.9 50 50 S 7 11 29.79 1009 10 16 0.00 0.00
7:53 pm 19:53 Sunny 83 28.3 67 19.4 59 59 S 6 9 29.78 1008 10 16 0.00 0.00
8:53 pm 20:53 Clear 80 26.7 68 20 67 67 S 6 9 29.79 1009 10 16 0.00 0.00
9:53 pm 21:53 Clear 76 24.4 68 20 77 77 S 8 13 29.80 1009 10 16 0.00 0.00
10:53 pm 22:53 Clear 74 23.3 67 19.4 79 79 S 7 11 29.80 1009 10 16 0.00 0.00
11:53 pm 23:53 Clear 75 23.9 66 18.9 74 74 S 7 11 29.79 1009 10 16 0.00 0.00

Powered by AerisWeather